Weather History for KBYI - March, 2013

Change the Weather History Date:

Friday, March 29, 2013

  Actual Average Record
Temperature  
Mean Temperature 51 °F 42 °F  
Max Temperature 65 °F 54 °F 78 °F (1978)
Min Temperature 37 °F 31 °F 16 °F (1987)
Degree Days  
Heating Degree Days 14 23  
Month to date heating degree days 702 752  
Since 1 July heating degree days 5460 5774  
Cooling Degree Days 0 0  
Month to date cooling degree days 0 0  
Year to date cooling degree days 0 0  
Moisture  
Dew Point 34 °F    
Average Humidity 58    
Maximum Humidity 85    
Minimum Humidity 30    
Precipitation  
Precipitation 0.00 in 0.03 in 0.22 in (2014)
Month to date precipitation 0.59 0.97  
Year to date precipitation 0.95 2.65  
Sea Level Pressure  
Sea Level Pressure 30.10 in    
Wind  
Wind Speed 9 mph (WSW)    
Max Wind Speed 21 mph    
Max Gust Speed 28 mph    
Visibility 10 miles    
Events      
T = Trace of Precipitation, MM = Missing Value Source: NWS Daily Summary

Daily Weather History Graph

Daily Weather History Graph

Search for Another Location

Airport or City:

Trip Planner

Search our weather history database for the weather conditions in past years. The results will help you decide how hot, cold, wet, or windy it might be!

Date:

Astronomy

Mar. 29, 2013 Rise Set
Actual Time 7:22 AM MDT 7:58 PM MDT
Civil Twilight 6:53 AM MDT 8:26 PM MDT
Nautical Twilight 6:20 AM MDT 8:59 PM MDT
Astronomical Twilight 5:45 AM MDT 9:34 PM MDT
Moon 11:07 PM MDT (3/29) 8:30 AM MDT (3/29)
Length of Visible Light 13h 32m
Length of Day
12h 35m
Waning Gibbous, 93% of the Moon is Illuminated
Mar 29
Waning Gibbous
Apr 2
Last Quarter
Apr 10
New
Apr 18
First Quarter
Apr 25
Full

Hourly Weather History & Observations

Time (MDT) Temp. Windchill Dew Point Humidity Pressure Visibility Wind Dir Wind Speed Gust Speed Precip Events Conditions
12:53 AM 44.1 °F 38.1 °F 37.0 °F 76% 30.04 in 10.0 mi SSW 11.5 mph - N/A   Clear
1:53 AM 42.1 °F 36.6 °F 37.0 °F 82% 30.05 in 10.0 mi SW 9.2 mph - N/A   Clear
2:53 AM 41.0 °F 38.0 °F 36.0 °F 82% 30.05 in 10.0 mi SW 4.6 mph - N/A   Overcast
3:53 AM 37.0 °F 33.3 °F 34.0 °F 89% 30.06 in 10.0 mi South 4.6 mph - N/A   Clear
4:53 AM 42.1 °F 36.1 °F 36.0 °F 79% 30.05 in 10.0 mi SSW 10.4 mph - N/A   Overcast
5:53 AM 39.9 °F - 35.1 °F 83% 30.07 in 10.0 mi Calm Calm - N/A   Clear
6:53 AM 37.9 °F 32.7 °F 34.0 °F 86% 30.11 in 10.0 mi SW 6.9 mph - N/A   Clear
7:53 AM 41.0 °F 38.0 °F 35.1 °F 79% 30.13 in 10.0 mi South 4.6 mph - N/A   Clear
8:53 AM 46.0 °F 41.9 °F 37.9 °F 73% 30.14 in 10.0 mi SSW 8.1 mph - N/A   Mostly Cloudy
9:53 AM 51.1 °F - 37.0 °F 59% 30.14 in 10.0 mi WSW 3.5 mph - N/A   Mostly Cloudy
10:53 AM 57.0 °F - 35.1 °F 44% 30.13 in 10.0 mi West 13.8 mph 20.7 mph N/A   Partly Cloudy
11:53 AM 60.1 °F - 36.0 °F 41% 30.13 in 10.0 mi WSW 11.5 mph 23.0 mph N/A   Clear
12:53 PM 62.1 °F - 34.0 °F 35% 30.12 in 10.0 mi West 19.6 mph 24.2 mph N/A   Clear
1:53 PM 62.1 °F - 34.0 °F 35% 30.11 in 10.0 mi West 17.3 mph 23.0 mph N/A   Clear
2:53 PM 63.0 °F - 35.1 °F 35% 30.10 in 10.0 mi WSW 10.4 mph 23.0 mph N/A   Clear
3:53 PM 64.0 °F - 35.1 °F 34% 30.09 in 10.0 mi West 12.7 mph 23.0 mph N/A   Partly Cloudy
4:53 PM 63.0 °F - 34.0 °F 34% 30.08 in 10.0 mi West 11.5 mph 24.2 mph N/A   Clear
5:53 PM 63.0 °F - 30.9 °F 30% 30.08 in 10.0 mi WNW 11.5 mph 19.6 mph N/A   Clear
6:53 PM 61.0 °F - 30.9 °F 32% 30.08 in 10.0 mi WNW 12.7 mph 18.4 mph N/A   Clear
7:53 PM 55.9 °F - 32.0 °F 40% 30.09 in 10.0 mi West 6.9 mph - N/A   Clear
8:53 PM 54.0 °F - 32.0 °F 43% 30.10 in 10.0 mi West 6.9 mph - N/A   Clear
9:53 PM 48.9 °F - 32.0 °F 52% 30.12 in 10.0 mi West 5.8 mph - N/A   Clear
10:53 PM 44.1 °F 38.6 °F 33.1 °F 65% 30.13 in 10.0 mi SSW 10.4 mph - N/A   Clear
11:53 PM 45.0 °F 39.7 °F 33.1 °F 63% 30.12 in 10.0 mi SSW 10.4 mph - N/A   Clear